This is the latest recevied weather packets stored in our database for station/object IW2NIA-3. If no packets are shown the sender has not sent any weather packets the latest 10 day(s).
| Time | Temp. | Humidity | Pressure | Rain* | Wind** | Luminosity | Snow |
|---|---|---|---|---|---|---|---|
| 1777815220 | 21.67° C | 43% | 1017.5 hPa | 0 mm | - | - | - |
| 1777814315 | 21.67° C | 41% | 1017.7 hPa | 0 mm | - | - | - |
| 1777813413 | 22.22° C | 45% | 1017.8 hPa | 0 mm | - | - | - |
| 1777812510 | 21.11° C | 44% | 1018 hPa | 0 mm | - | - | - |
| 1777811607 | 21.67° C | 45% | 1018 hPa | 0 mm | - | - | - |
| 1777810707 | 21.67° C | 45% | 1018 hPa | 0 mm | - | - | - |
| 1777809823 | 21.67° C | 46% | 1018.1 hPa | 0 mm | - | - | - |
| 1777808912 | 21.11° C | 44% | 1017.9 hPa | 0 mm | - | - | - |
| 1777808021 | 21.67° C | 46% | 1017.8 hPa | 0 mm | - | - | - |
| 1777807114 | 22.22° C | 48% | 1017.8 hPa | 0 mm | - | - | - |
| 1777806223 | 21.11° C | 44% | 1017.9 hPa | 0 mm | - | - | - |
| 1777805319 | 21.67° C | 42% | 1018.1 hPa | 0 mm | - | - | - |
| 1777804417 | 21.11° C | 40% | 1018.1 hPa | 0 mm | - | - | - |
| 1777803522 | 20.56° C | 42% | 1018.1 hPa | 0 mm | - | - | - |
| 1777802615 | 20.56° C | 45% | 1018.1 hPa | 0 mm | - | - | - |
| 1777801709 | 20.56° C | 47% | 1018.2 hPa | 0 mm | - | - | - |
| 1777800826 | 20° C | 48% | 1018.3 hPa | 0 mm | - | - | - |
| 1777799920 | 20° C | 53% | 1018.4 hPa | 0 mm | - | - | - |
| 1777799012 | 19.44° C | 53% | 1018.4 hPa | 0 mm | - | - | - |
| 1777798125 | 18.89° C | 53% | 1018.4 hPa | 0 mm | - | - | - |
| 1777797221 | 18.89° C | 57% | 1018.5 hPa | 0 mm | - | - | - |
| 1777796319 | 18.33° C | 58% | 1018.6 hPa | 0 mm | - | - | - |
| 1777795415 | 18.33° C | 60% | 1018.6 hPa | 0 mm | - | - | - |
| 1777794526 | 17.78° C | 61% | 1018.7 hPa | 0 mm | - | - | - |
| 1777793616 | 17.22° C | 66% | 1018.6 hPa | 0 mm | - | - | - |
* Rain latest hour (hover to see other rain measurements)
** Current wind speed in m/s (hover to see current wind gust speed)